period_start,C,m1,H,J0,J1,J2,J3,J4,J5,JA,JB,JC,JD,JJ,JK,JN,#
2017-09-20 00:00:10,0.00,0.06,0.00,21.39,26.32,29.57,14.01,44.63,1011.74,2036.00,3512.05,3084.00,3538.00,600.37,596.70,11.90,0000 0000 0000 0000 000000
2017-09-20 00:05:11,0.00,0.06,0.00,21.40,26.33,29.58,14.02,44.75,1011.73,2036.00,3512.00,3083.96,3537.86,599.91,596.26,11.95,0000 0000 0000 0000 000000
2017-09-20 00:10:12,0.01,0.06,0.00,21.40,26.34,29.57,14.01,44.49,1011.71,2036.00,3511.98,3083.85,3537.38,599.88,596.32,12.00,0000 0000 0000 0000 000000
2017-09-20 00:15:13,0.02,0.06,0.00,21.38,26.35,29.63,14.00,44.48,1011.63,2036.00,3511.70,3083.39,3537.06,599.90,596.25,12.06,0000 0000 0000 0000 000000
2017-09-20 00:20:15,0.01,0.06,0.00,21.57,26.35,29.37,14.04,44.27,1011.29,2036.01,3511.21,3083.08,3537.01,600.43,596.25,12.11,0000 0000 0000 0000 000000
2017-09-20 00:25:16,0.00,0.06,0.00,21.48,26.36,29.29,14.00,44.28,1011.27,2036.01,3511.01,3083.01,3536.99,599.80,595.89,12.16,0000 0000 0000 0000 000000
2017-09-20 00:30:17,0.00,0.06,0.00,21.36,26.36,29.52,13.97,44.48,1011.26,2036.01,3511.00,3083.00,3536.98,600.23,596.26,12.21,0000 0000 0000 0000 000000
2017-09-20 00:35:18,0.00,0.06,0.00,21.25,26.35,29.76,14.01,44.40,1011.25,2036.04,3510.98,3083.00,3536.98,599.85,596.21,12.26,0000 0000 0000 0000 000000
2017-09-20 00:40:20,0.04,0.07,0.00,21.15,26.31,29.67,14.01,44.51,1011.22,2036.40,3510.94,3083.00,3536.98,600.21,596.75,12.31,0000 0000 0000 0000 000000
2017-09-20 00:45:21,0.04,0.07,0.00,21.04,26.27,29.56,14.00,44.41,1011.04,2036.82,3510.88,3083.00,3536.97,599.83,596.59,12.36,0000 0000 0000 0000 000000
2017-09-20 00:50:23,0.00,0.07,0.00,20.95,26.22,29.31,14.00,44.39,1010.83,2036.97,3510.90,3083.02,3536.99,599.78,596.59,12.41,0000 0000 0000 0000 000000
2017-09-20 00:55:24,-0.01,0.07,0.00,20.87,26.15,29.14,14.02,44.25,1010.78,2036.99,3510.96,3083.25,3537.01,600.04,596.98,12.46,0000 0000 0000 0000 000000
2017-09-20 01:00:25,-0.01,0.07,0.00,20.81,26.08,29.03,14.05,44.29,1010.76,2037.04,3510.98,3083.86,3537.29,600.79,597.82,12.51,0000 0000 0000 0000 000000
2017-09-20 01:05:26,0.04,0.07,0.00,20.74,26.01,28.83,14.00,44.62,1010.62,2037.42,3510.99,3083.99,3537.89,600.03,597.18,12.56,0000 0000 0000 0000 000000
2017-09-20 01:10:27,0.03,0.07,0.00,20.66,25.93,28.59,14.07,44.65,1010.33,2037.96,3510.99,3084.00,3537.99,600.18,597.26,12.61,0000 0000 0000 0000 000000
2017-09-20 01:15:28,-0.01,0.07,0.00,20.38,25.85,28.11,14.09,44.33,1010.27,2037.99,3511.07,3084.32,3538.03,600.64,598.26,12.66,0000 0000 0000 0000 000000
2017-09-20 01:20:30,-0.02,0.07,0.00,20.24,25.77,27.75,13.96,44.18,1010.27,2038.06,3511.20,3084.89,3538.58,599.71,597.65,12.71,0000 0000 0000 0000 000000
2017-09-20 01:25:31,0.06,0.07,0.00,20.14,25.68,27.50,14.02,44.33,1010.24,2038.80,3511.87,3085.00,3538.99,599.98,598.01,12.76,0000 0000 0000 0000 000000
2017-09-20 01:30:33,-0.00,0.07,0.00,20.12,25.60,27.33,14.01,44.08,1010.21,2038.99,3511.99,3085.18,3539.12,600.30,598.40,12.81,0000 0000 0000 0000 000000
2017-09-20 01:35:34,-0.03,0.07,0.00,20.10,25.52,27.18,14.03,44.51,1010.22,2039.00,3511.99,3085.93,3539.84,600.17,598.30,12.86,0000 0000 0000 0000 000000
2017-09-20 01:40:35,0.04,0.07,0.00,20.09,25.45,27.05,14.04,44.31,1009.97,2039.36,3512.02,3085.99,3539.99,600.66,598.57,12.91,0000 0000 0000 0000 000000
2017-09-20 01:45:36,0.03,0.07,0.00,20.13,25.37,26.95,13.98,44.56,1009.79,2039.95,3512.07,3086.01,3540.02,600.46,598.28,12.96,0000 0000 0000 0000 000000
2017-09-20 01:50:37,-0.03,0.07,0.00,20.13,25.30,26.89,13.91,44.55,1009.78,2039.99,3512.63,3086.49,3540.43,599.72,597.56,13.01,0000 0000 0000 0000 000000
2017-09-20 01:55:39,-0.00,0.07,0.00,20.15,25.23,26.86,13.85,44.37,1009.76,2040.00,3512.94,3086.96,3540.93,599.67,597.58,13.06,0000 0000 0000 0000 000000
2017-09-20 02:00:40,0.04,0.07,0.00,20.19,25.17,26.87,13.97,44.60,1009.53,2040.40,3512.99,3086.99,3540.99,600.19,597.70,13.11,0000 0000 0000 0000 000000
2017-09-20 02:05:41,0.04,0.08,0.00,20.23,25.10,26.85,13.99,44.32,1009.30,2040.94,3512.99,3087.01,3541.05,600.63,597.81,13.16,0000 0000 0000 0000 000000
2017-09-20 02:10:43,-0.02,0.08,0.00,20.24,25.05,26.85,13.95,44.99,1009.29,2040.99,3513.02,3087.43,3541.70,600.41,597.72,13.21,0000 0000 0000 0000 000000
2017-09-20 02:15:44,-0.00,0.07,0.00,20.27,24.99,26.95,13.91,44.78,1009.28,2041.02,3513.03,3087.93,3541.96,599.87,597.04,13.26,0000 0000 0000 0000 000000
2017-09-20 02:20:45,0.03,0.08,0.00,20.27,24.95,26.96,14.00,44.71,1009.29,2041.31,3513.02,3087.98,3541.98,599.87,597.10,13.31,0000 0000 0000 0000 000000
2017-09-20 02:25:46,0.04,0.08,0.00,20.21,24.91,26.95,14.02,44.71,1009.27,2041.90,3513.06,3087.99,3541.99,600.11,597.58,13.36,0000 0000 0000 0000 000000
2017-09-20 02:30:48,0.00,0.08,0.00,20.16,24.86,26.87,13.90,44.71,1009.19,2041.99,3513.08,3088.00,3542.02,599.85,597.31,13.41,0000 0000 0000 0000 000000
2017-09-20 02:35:49,0.00,0.08,0.00,20.12,24.82,26.85,13.96,44.53,1008.95,2042.00,3513.15,3088.02,3542.05,600.21,597.45,13.46,0000 0000 0000 0000 000000
2017-09-20 02:40:50,-0.01,0.08,0.00,20.08,24.78,26.78,13.90,44.71,1008.86,2042.01,3513.43,3088.27,3542.24,600.08,597.45,13.51,0000 0000 0000 0000 000000
2017-09-20 02:45:51,0.02,0.08,0.00,20.03,24.74,26.68,13.97,44.71,1008.81,2042.28,3513.51,3088.85,3542.76,600.01,597.32,13.56,0000 0000 0000 0000 000000
2017-09-20 02:50:53,0.04,0.08,0.00,19.99,24.69,26.59,13.83,44.25,1008.80,2042.83,3513.08,3088.89,3542.88,599.25,596.80,13.61,0000 0000 0000 0000 000000
2017-09-20 02:55:54,0.00,0.08,0.00,19.95,24.65,26.57,14.07,44.65,1008.80,2042.98,3513.04,3088.97,3542.97,600.24,597.92,13.66,0000 0000 0000 0000 000000
2017-09-20 03:00:56,0.00,0.08,0.00,19.92,24.61,26.53,13.99,44.55,1008.78,2042.99,3513.01,3088.96,3542.97,600.17,597.86,13.71,0000 0000 0000 0000 000000
2017-09-20 03:05:57,0.00,0.08,0.00,19.90,24.57,26.46,13.85,44.02,1008.73,2043.03,3513.00,3088.98,3542.99,599.25,597.02,13.76,0000 0000 0000 0000 000000
2017-09-20 03:10:58,0.05,0.08,0.00,19.89,24.53,26.49,14.01,44.56,1008.54,2043.45,3513.00,3088.99,3542.99,600.41,597.98,13.81,0000 0000 0000 0000 000000
2017-09-20 03:15:59,0.02,0.09,0.00,19.87,24.49,26.49,13.92,44.52,1008.35,2043.94,3513.00,3088.99,3542.99,600.02,597.35,13.86,0000 0000 0000 0000 000000
2017-09-20 03:21:01,0.00,0.09,0.00,19.87,24.46,26.40,13.91,44.25,1008.32,2043.99,3513.00,3089.00,3543.00,600.29,597.65,13.91,0000 0000 0000 0000 000000
2017-09-20 03:26:02,0.00,0.09,0.00,19.85,24.42,26.41,14.01,44.42,1008.33,2043.99,3513.00,3089.01,3543.00,599.81,597.36,13.96,0000 0000 0000 0000 000000
2017-09-20 03:31:04,0.00,0.09,0.00,19.84,24.38,26.39,13.94,44.37,1008.33,2043.99,3512.98,3089.00,3543.00,600.05,597.52,14.01,0000 0000 0000 0000 000000
2017-09-20 03:36:05,0.00,0.09,0.00,19.84,24.35,26.43,13.92,44.59,1008.32,2044.00,3512.72,3089.00,3543.00,599.88,597.38,14.06,0000 0000 0000 0000 000000
2017-09-20 03:41:07,0.01,0.09,0.00,19.83,24.31,26.42,13.91,44.43,1008.32,2044.06,3512.32,3089.00,3543.00,600.08,597.66,14.11,0000 0000 0000 0000 000000
2017-09-20 03:46:08,0.05,0.09,0.00,19.84,24.28,26.47,14.04,44.72,1008.29,2044.54,3512.10,3089.01,3543.00,600.63,598.15,14.16,0000 0000 0000 0000 000000
2017-09-20 03:51:09,0.02,0.09,0.00,19.84,24.25,26.36,13.96,44.73,1008.22,2044.93,3512.00,3089.00,3542.99,599.95,597.39,14.21,0000 0000 0000 0000 000000
2017-09-20 03:56:10,0.00,0.09,0.00,19.83,24.22,26.41,13.88,44.18,1008.07,2044.99,3512.00,3089.00,3542.98,599.70,597.38,14.26,0000 0000 0000 0000 000000
2017-09-20 04:01:12,0.00,0.09,0.00,19.80,24.20,26.31,13.98,44.38,1007.84,2044.99,3511.98,3089.00,3542.97,599.47,596.83,14.32,0000 0000 0000 0000 000000
2017-09-20 04:06:13,0.01,0.09,0.00,19.79,24.17,26.36,13.95,44.55,1007.84,2044.99,3511.51,3089.00,3542.94,600.19,597.54,14.37,0000 0000 0000 0000 000000
2017-09-20 04:11:14,0.02,0.09,0.00,19.79,24.15,26.34,13.93,44.14,1007.84,2045.01,3511.07,3088.98,3542.45,599.85,597.16,14.42,0000 0000 0000 0000 000000
2017-09-20 04:16:16,0.00,0.09,0.00,19.80,24.13,26.37,13.92,44.38,1007.83,2045.02,3511.00,3088.97,3542.04,600.36,597.83,14.47,0000 0000 0000 0000 000000
2017-09-20 04:21:17,0.00,0.09,0.00,19.80,24.11,26.34,13.95,44.23,1007.80,2045.05,3510.99,3088.94,3542.00,599.98,597.35,14.52,0000 0000 0000 0000 000000
2017-09-20 04:26:18,0.04,0.09,0.00,19.80,24.10,26.34,13.84,44.17,1007.77,2045.24,3510.61,3088.70,3542.00,599.38,596.71,14.57,0000 0000 0000 0000 000000
2017-09-20 04:31:20,0.04,0.10,0.00,19.82,24.07,26.34,13.93,44.65,1007.57,2045.74,3510.20,3088.62,3541.99,600.02,597.34,14.62,0000 0000 0000 0000 000000
2017-09-20 04:36:21,0.02,0.10,0.00,19.83,24.06,26.34,13.96,44.58,1007.40,2045.86,3510.04,3088.31,3541.94,599.71,596.92,14.67,0000 0000 0000 0000 000000
2017-09-20 04:41:23,0.01,0.10,0.00,19.84,24.05,26.31,14.04,44.62,1007.37,2045.88,3510.00,3088.10,3541.47,600.27,597.19,14.72,0000 0000 0000 0000 000000
2017-09-20 04:46:24,0.01,0.10,0.00,19.84,24.03,26.35,13.90,44.76,1007.34,2045.93,3509.93,3088.01,3541.08,600.26,597.22,14.77,0000 0000 0000 0000 000000
2017-09-20 04:51:25,0.01,0.10,0.00,19.84,24.02,26.36,13.95,44.66,1007.33,2045.97,3509.16,3088.00,3541.01,599.65,596.66,14.82,0000 0000 0000 0000 000000
2017-09-20 04:56:26,0.00,0.10,0.00,19.87,24.00,26.36,13.96,44.91,1007.32,2045.97,3509.00,3087.98,3541.00,600.11,596.97,14.87,0000 0000 0000 0000 000000
2017-09-20 05:01:28,0.00,0.10,0.00,19.87,24.00,26.38,13.90,44.69,1007.31,2045.98,3508.91,3087.95,3540.95,599.83,596.72,14.92,0000 0000 0000 0000 000000
2017-09-20 05:06:29,0.02,0.10,0.00,19.88,23.98,26.40,13.93,44.54,1007.12,2045.99,3508.33,3087.72,3540.60,599.67,596.52,14.97,0000 0000 0000 0000 000000
2017-09-20 05:11:30,0.01,0.10,0.00,19.89,23.97,26.39,13.87,44.34,1006.97,2045.99,3508.02,3087.41,3540.10,599.63,596.07,15.02,0000 0000 0000 0000 000000
2017-09-20 05:16:31,0.00,0.10,0.00,19.89,23.97,26.40,13.94,44.48,1006.87,2045.99,3507.99,3087.09,3540.01,599.97,596.56,15.07,0000 0000 0000 0000 000000
2017-09-20 05:21:32,0.01,0.10,0.00,19.89,23.95,26.38,14.00,44.35,1006.85,2045.99,3507.45,3087.00,3540.00,600.11,596.67,15.12,0000 0000 0000 0000 000000
2017-09-20 05:26:34,0.00,0.10,0.00,19.91,23.95,26.45,13.91,44.27,1006.85,2046.00,3507.04,3087.00,3539.97,600.03,596.47,15.17,0000 0000 0000 0000 000000
2017-09-20 05:31:35,0.01,0.11,0.00,19.92,23.95,26.52,13.86,44.30,1006.84,2046.02,3506.96,3086.98,3539.56,599.78,596.26,15.22,0000 0000 0000 0000 000000
2017-09-20 05:36:36,0.02,0.11,0.00,19.96,23.95,26.55,13.90,44.17,1006.79,2046.01,3506.40,3086.71,3539.04,600.06,596.46,15.27,0000 0000 0000 0000 000000
2017-09-20 05:41:38,0.01,0.11,0.00,19.98,23.95,26.55,13.87,44.32,1006.62,2046.01,3506.02,3086.18,3539.00,600.18,596.38,15.32,0000 0000 0000 0000 000000
2017-09-20 05:46:39,0.00,0.11,0.00,19.97,23.95,26.54,13.88,44.30,1006.39,2046.03,3505.99,3086.02,3538.95,599.82,595.89,15.37,0000 0000 0000 0000 000000
2017-09-20 05:51:40,0.02,0.11,0.00,19.98,23.95,26.56,13.93,44.20,1006.36,2046.06,3505.51,3086.00,3538.62,599.97,596.06,15.42,0000 0000 0000 0000 000000
2017-09-20 05:56:42,0.02,0.11,0.00,19.99,23.95,26.53,13.86,44.30,1006.36,2046.14,3505.02,3085.98,3538.09,600.19,596.16,15.47,0000 0000 0000 0000 000000
2017-09-20 06:01:43,0.01,0.11,0.00,19.99,23.95,26.53,13.90,44.52,1006.36,2046.28,3504.96,3085.87,3538.01,600.24,596.32,15.52,0000 0000 0000 0000 000000
2017-09-20 06:06:44,0.01,0.11,0.00,20.00,23.94,26.57,13.94,44.33,1006.36,2046.11,3504.25,3085.23,3537.97,600.02,595.98,15.57,0000 0000 0000 0000 000000
2017-09-20 06:11:45,0.03,0.11,0.00,20.02,23.94,26.57,13.92,44.45,1006.36,2046.30,3504.02,3085.07,3537.71,600.10,596.21,15.62,0000 0000 0000 0000 000000
2017-09-20 06:16:46,0.01,0.11,0.00,20.02,23.94,26.53,13.91,44.35,1006.34,2046.36,3504.00,3085.00,3537.13,600.39,596.38,15.67,0000 0000 0000 0000 000000
2017-09-20 06:21:48,0.02,0.12,0.00,20.03,23.94,26.52,13.90,44.42,1006.34,2046.63,3503.69,3085.00,3537.01,599.64,595.60,15.72,0000 0000 0000 0000 000000
2017-09-20 06:26:49,-0.01,0.11,0.00,20.03,23.94,26.51,14.00,44.65,1006.29,2046.25,3503.02,3084.88,3536.97,600.39,596.35,15.77,0000 0000 0000 0000 000000
2017-09-20 06:31:50,0.03,0.12,0.00,20.03,23.94,26.53,13.81,44.44,1006.28,2046.34,3502.95,3084.40,3536.67,599.46,595.49,15.82,0000 0000 0000 0000 000000
2017-09-20 06:36:52,0.04,0.12,0.00,20.04,23.93,26.57,13.89,44.82,1006.35,2046.56,3502.31,3084.08,3536.16,600.33,596.44,15.87,0000 0000 0000 0000 000000
2017-09-20 06:41:53,-0.02,0.12,0.00,20.04,23.93,26.52,13.85,44.59,1006.36,2046.39,3502.02,3084.00,3536.01,599.68,595.74,15.92,0000 0000 0000 0000 000000
2017-09-20 06:46:54,-0.00,0.12,0.00,20.04,23.92,26.54,13.97,44.77,1006.35,2046.21,3501.99,3084.00,3535.99,599.77,595.97,15.97,0000 0000 0000 0000 000000
2017-09-20 06:51:56,0.02,0.12,0.00,20.04,23.92,26.55,13.90,44.65,1006.35,2046.38,3501.68,3083.99,3535.89,599.95,595.91,16.02,0000 0000 0000 0000 000000
2017-09-20 06:56:57,0.03,0.12,0.00,20.05,23.92,26.53,13.88,44.60,1006.32,2046.45,3501.07,3083.86,3535.27,599.46,595.36,16.07,0000 0000 0000 0000 000000
2017-09-20 07:01:58,0.03,0.12,0.00,20.07,23.92,26.54,14.01,44.44,1006.27,2046.54,3500.98,3083.21,3535.01,600.38,596.32,16.12,0000 0000 0000 0000 000000
2017-09-20 07:06:59,0.02,0.12,0.00,20.07,23.92,26.59,13.85,44.54,1006.07,2046.72,3500.46,3083.02,3535.00,599.75,595.41,16.17,0000 0000 0000 0000 000000
2017-09-20 07:12:00,0.02,0.12,0.00,20.07,23.93,26.59,13.93,44.42,1006.09,2046.76,3500.02,3083.00,3534.76,600.05,595.88,16.22,0000 0000 0000 0000 000000
2017-09-20 07:17:01,0.02,0.12,0.00,20.08,23.94,26.62,13.89,44.38,1006.13,2046.89,3499.96,3082.99,3534.15,600.33,596.21,16.27,0000 0000 0000 0000 000000
2017-09-20 07:22:02,0.01,0.12,0.00,20.11,23.94,26.67,13.94,44.27,1006.09,2046.90,3499.68,3082.83,3534.02,599.49,595.16,16.32,0000 0000 0000 0000 000000
2017-09-20 07:27:03,0.02,0.13,0.00,20.13,23.95,26.70,13.93,44.58,1005.93,2046.86,3499.09,3082.29,3534.00,600.58,596.16,16.37,0000 0000 0000 0000 000000
2017-09-20 07:32:04,0.00,0.13,0.00,20.17,23.95,26.73,13.91,44.51,1005.91,2046.89,3499.00,3082.05,3533.91,599.76,595.35,16.42,0000 0000 0000 0000 000000
2017-09-20 07:37:05,0.02,0.13,0.00,20.19,23.96,26.80,13.95,44.33,1005.89,2046.86,3498.74,3081.99,3533.29,600.39,595.78,16.47,0000 0000 0000 0000 000000
2017-09-20 07:42:07,0.00,0.13,0.00,20.21,23.97,26.83,13.97,44.35,1005.90,2046.85,3498.05,3081.98,3533.01,599.63,594.93,16.52,0000 0000 0000 0000 000000
2017-09-20 07:47:08,-0.01,0.13,0.00,20.23,23.98,26.86,13.87,44.51,1005.89,2046.52,3497.96,3081.50,3532.90,600.62,595.90,16.57,0000 0000 0000 0000 000000
2017-09-20 07:52:09,0.01,0.13,0.00,20.25,24.00,26.86,13.81,44.23,1005.89,2046.23,3497.29,3081.02,3532.21,599.63,594.91,16.62,0000 0000 0000 0000 000000
2017-09-20 07:57:11,0.01,0.13,0.00,20.29,24.01,26.92,13.84,44.16,1005.88,2046.27,3496.99,3080.99,3532.00,599.77,594.97,16.67,0000 0000 0000 0000 000000
2017-09-20 08:02:12,0.00,0.13,0.00,20.32,24.02,26.91,13.93,44.22,1005.91,2046.21,3496.72,3080.87,3531.94,600.24,595.20,16.73,0000 0000 0000 0000 000000
2017-09-20 08:07:14,0.02,0.13,0.00,20.37,24.04,26.93,13.82,44.17,1005.89,2046.04,3496.03,3080.10,3531.18,599.58,594.58,16.78,0000 0000 0000 0000 000000
2017-09-20 08:12:15,0.00,0.13,0.00,20.42,24.05,27.00,13.85,44.07,1005.89,2046.07,3495.97,3080.01,3531.01,599.83,594.84,16.83,0000 0000 0000 0000 000000
2017-09-20 08:17:16,0.01,0.13,0.00,20.48,24.07,26.99,13.84,43.97,1005.90,2046.04,3495.34,3079.99,3530.95,599.81,594.87,16.88,0000 0000 0000 0000 000000
2017-09-20 08:22:18,0.01,0.13,0.00,20.51,24.08,27.02,13.94,44.05,1006.00,2046.01,3495.00,3079.85,3530.29,600.50,595.30,16.93,0000 0000 0000 0000 000000
2017-09-20 08:27:19,0.03,0.13,0.00,20.50,24.10,27.03,13.88,44.27,1005.94,2046.01,3494.57,3079.12,3530.00,599.97,594.77,16.98,0000 0000 0000 0000 000000
2017-09-20 08:32:20,0.01,0.13,0.00,20.48,24.11,27.05,13.90,44.19,1005.90,2046.00,3494.01,3079.00,3529.68,600.27,595.14,17.03,0000 0000 0000 0000 000000
2017-09-20 08:37:21,0.02,0.13,0.00,20.46,24.12,27.07,13.86,44.19,1005.90,2046.00,3493.64,3078.84,3529.02,599.59,594.45,17.08,0000 0000 0000 0000 000000
2017-09-20 08:42:23,0.02,0.14,0.00,20.44,24.15,27.07,13.98,44.39,1005.91,2045.99,3493.03,3078.12,3528.93,600.78,595.62,17.13,0000 0000 0000 0000 000000
2017-09-20 08:47:24,0.01,0.14,0.00,20.44,24.15,27.05,13.85,44.37,1005.89,2045.98,3492.80,3078.00,3528.18,600.50,595.46,17.18,0000 0000 0000 0000 000000
2017-09-20 08:52:25,0.01,0.14,0.00,20.44,24.17,27.03,13.89,44.89,1005.87,2045.97,3492.05,3077.89,3528.00,600.12,595.02,17.23,0000 0000 0000 0000 000000
2017-09-20 08:57:26,0.03,0.14,0.00,20.44,24.17,27.03,13.87,44.70,1005.87,2045.95,3491.64,3077.17,3527.54,599.37,594.26,17.28,0000 0000 0000 0000 000000
2017-09-20 09:02:28,-0.01,0.14,0.00,20.43,24.20,27.03,13.91,44.86,1005.87,2045.84,3491.02,3077.00,3527.01,600.13,595.07,17.33,0000 0000 0000 0000 000000
2017-09-20 09:07:29,0.01,0.14,0.00,20.41,24.20,27.00,13.84,45.02,1005.87,2045.63,3490.64,3076.91,3526.71,599.70,594.77,17.38,0000 0000 0000 0000 000000
2017-09-20 09:12:30,0.01,0.14,0.00,20.40,24.20,26.95,13.80,44.92,1005.82,2045.42,3490.03,3076.26,3526.07,599.62,594.52,17.43,0000 0000 0000 0000 000000
2017-09-20 09:17:31,0.01,0.14,0.00,20.39,24.21,26.97,13.90,45.04,1005.81,2045.24,3489.44,3076.00,3525.93,599.98,594.84,17.48,0000 0000 0000 0000 000000
2017-09-20 09:22:32,0.01,0.14,0.00,20.38,24.22,26.93,13.88,45.13,1005.85,2045.13,3488.93,3075.71,3525.24,599.71,594.70,17.53,0000 0000 0000 0000 000000
2017-09-20 09:27:33,0.02,0.14,0.00,20.37,24.22,26.89,13.85,44.90,1005.87,2045.03,3488.15,3075.03,3524.76,599.63,594.55,17.58,0000 0000 0000 0000 000000
2017-09-20 09:32:35,0.01,0.14,0.00,20.35,24.22,26.88,13.92,45.04,1005.87,2045.03,3487.74,3074.97,3524.05,600.14,595.10,17.63,0000 0000 0000 0000 000000
2017-09-20 09:37:36,0.03,0.14,0.00,20.34,24.22,26.86,13.85,44.91,1005.85,2045.01,3487.03,3074.37,3523.96,599.45,594.61,17.68,0000 0000 0000 0000 000000
2017-09-20 09:42:37,0.01,0.15,0.00,20.32,24.22,26.85,13.82,44.75,1005.75,2045.00,3486.86,3074.03,3523.45,599.77,594.74,17.73,0000 0000 0000 0000 000000
2017-09-20 09:47:38,0.01,0.15,0.00,20.32,24.22,26.81,13.86,44.77,1005.62,2045.01,3486.07,3074.00,3523.01,599.58,594.70,17.78,0000 0000 0000 0000 000000
2017-09-20 09:52:40,0.01,0.15,0.00,20.30,24.22,26.76,13.92,44.86,1005.46,2045.02,3485.82,3073.90,3522.90,600.31,595.31,17.83,0000 0000 0000 0000 000000
2017-09-20 09:57:41,0.04,0.15,0.00,20.29,24.22,26.77,13.87,44.91,1005.47,2045.00,3485.07,3073.22,3522.16,600.33,595.32,17.88,0000 0000 0000 0000 000000
2017-09-20 10:02:42,0.00,0.15,0.00,20.28,24.22,26.76,13.89,44.86,1005.54,2045.02,3484.79,3073.00,3522.00,599.97,595.01,17.93,0000 0000 0000 0000 000000
2017-09-20 10:07:43,0.01,0.15,0.00,20.27,24.22,26.74,13.96,44.94,1005.52,2045.01,3484.08,3072.99,3521.91,600.20,595.06,17.98,0000 0000 0000 0000 000000
2017-09-20 10:12:45,0.01,0.15,0.00,20.26,24.21,26.75,13.93,44.63,1005.81,2045.03,3483.98,3072.90,3521.23,599.96,595.19,18.03,0000 0000 0000 0000 000000
2017-09-20 10:17:46,0.03,0.15,0.00,20.24,24.20,26.72,13.97,44.62,1005.87,2045.04,3483.51,3072.42,3521.00,600.31,595.69,18.08,0000 0000 0000 0000 000000
2017-09-20 10:22:47,0.01,0.15,0.00,20.24,24.20,26.69,13.93,44.80,1005.87,2045.03,3483.02,3072.02,3520.96,600.35,595.69,18.13,0000 0000 0000 0000 000000
2017-09-20 10:27:48,0.01,0.15,0.00,20.23,24.20,26.70,13.95,44.99,1005.87,2045.03,3482.78,3072.00,3520.32,600.19,595.49,18.18,0000 0000 0000 0000 000000
2017-09-20 10:32:49,0.01,0.15,0.00,20.21,24.19,26.67,13.92,44.97,1005.88,2045.03,3482.10,3071.98,3520.02,599.99,595.32,18.23,0000 0000 0000 0000 000000
2017-09-20 10:37:50,0.02,0.15,0.00,20.20,24.17,26.67,13.93,44.97,1005.91,2045.02,3481.97,3071.61,3519.98,600.10,595.60,18.28,0000 0000 0000 0000 000000
2017-09-20 10:42:52,0.02,0.16,0.00,20.19,24.17,26.63,13.85,44.77,1006.00,2045.01,3481.34,3071.08,3519.80,599.71,595.24,18.33,0000 0000 0000 0000 000000
2017-09-20 10:47:53,0.01,0.16,0.00,20.17,24.17,26.64,13.97,44.76,1006.19,2045.05,3481.00,3071.00,3519.21,600.36,595.89,18.38,0000 0000 0000 0000 000000
2017-09-20 10:52:54,0.00,0.16,0.00,20.16,24.16,26.71,13.84,44.59,1006.23,2045.08,3480.93,3071.00,3519.02,599.57,595.35,18.43,0000 0000 0000 0000 000000
2017-09-20 10:57:56,0.01,0.16,0.00,20.16,24.15,26.66,13.90,44.73,1006.11,2045.09,3480.23,3070.98,3519.00,599.80,595.40,18.48,0000 0000 0000 0000 000000
2017-09-20 11:02:57,0.00,0.16,0.00,20.16,24.15,26.67,13.86,44.68,1005.94,2045.09,3480.00,3070.83,3518.77,599.57,595.11,18.53,0000 0000 0000 0000 000000
2017-09-20 11:07:58,0.03,0.16,0.00,20.16,24.15,26.64,13.91,44.85,1006.00,2045.06,3479.74,3070.16,3518.06,600.02,595.48,18.58,0000 0000 0000 0000 000000
2017-09-20 11:12:59,0.01,0.16,0.00,20.16,24.14,26.69,13.93,44.92,1006.03,2045.06,3479.06,3070.01,3518.00,600.12,595.66,18.63,0000 0000 0000 0000 000000
2017-09-20 11:18:01,0.01,0.16,0.00,20.18,24.12,26.66,13.93,44.96,1005.93,2045.15,3479.00,3070.00,3517.99,600.07,595.61,18.68,0000 0000 0000 0000 000000
2017-09-20 11:23:02,0.02,0.16,0.00,20.17,24.12,26.68,13.84,44.87,1005.92,2045.24,3478.68,3070.00,3517.66,599.85,595.33,18.73,0000 0000 0000 0000 000000
2017-09-20 11:28:03,0.02,0.16,0.00,20.17,24.12,26.68,13.93,44.88,1005.91,2045.28,3478.05,3069.93,3517.05,600.14,595.57,18.78,0000 0000 0000 0000 000000
2017-09-20 11:33:04,0.01,0.16,0.00,20.18,24.12,26.66,13.85,44.67,1005.89,2045.32,3478.00,3069.57,3517.00,599.55,594.93,18.83,0000 0000 0000 0000 000000
2017-09-20 11:38:05,0.03,0.16,0.00,20.17,24.10,26.62,13.82,44.85,1005.89,2045.41,3477.73,3069.12,3516.98,599.71,595.23,18.88,0000 0000 0000 0000 000000
2017-09-20 11:43:06,0.02,0.17,0.00,20.16,24.10,26.60,13.90,44.99,1005.89,2045.56,3477.12,3069.01,3516.83,599.76,595.23,18.93,0000 0000 0000 0000 000000
2017-09-20 11:48:08,0.01,0.17,0.00,20.15,24.10,26.54,13.88,44.76,1005.89,2045.65,3477.00,3069.00,3516.20,599.60,595.13,18.98,0000 0000 0000 0000 000000
2017-09-20 11:53:09,0.02,0.17,0.00,20.12,24.09,26.53,13.87,44.67,1005.89,2045.77,3476.95,3068.99,3516.01,599.62,595.17,19.03,0000 0000 0000 0000 000000
2017-09-20 11:58:10,0.00,0.17,0.00,20.12,24.07,26.49,13.96,45.10,1005.89,2045.85,3476.36,3068.96,3515.99,600.01,595.57,19.08,0000 0000 0000 0000 000000
2017-09-20 12:03:12,0.02,0.17,0.00,20.11,24.07,26.55,13.79,44.88,1005.89,2045.82,3475.99,3068.50,3515.90,599.81,595.51,19.13,0000 0000 0000 0000 000000
2017-09-20 12:08:13,0.03,0.17,0.00,20.10,24.07,26.55,13.98,44.87,1005.89,2045.85,3475.93,3068.05,3515.32,600.16,595.73,19.18,0000 0000 0000 0000 000000
2017-09-20 12:13:14,0.02,0.17,0.00,20.09,24.05,26.52,13.92,44.88,1005.88,2045.93,3475.27,3068.00,3515.03,599.70,595.28,19.23,0000 0000 0000 0000 000000
2017-09-20 12:18:15,0.00,0.17,0.00,20.08,24.05,26.55,13.97,44.81,1005.88,2045.97,3475.01,3068.00,3515.00,600.04,595.76,19.28,0000 0000 0000 0000 000000
2017-09-20 12:23:16,0.00,0.17,0.00,20.07,24.05,26.55,13.96,44.88,1005.88,2045.98,3474.81,3067.99,3514.96,600.28,595.93,19.33,0000 0000 0000 0000 000000
2017-09-20 12:28:18,0.02,0.17,0.00,20.07,24.04,26.49,13.92,44.77,1005.89,2045.98,3474.12,3067.80,3514.59,600.12,595.76,19.38,0000 0000 0000 0000 000000
2017-09-20 12:33:19,0.02,0.18,0.00,20.05,24.02,26.50,13.79,44.55,1005.89,2045.98,3473.98,3067.15,3514.07,599.27,595.07,19.43,0000 0000 0000 0000 000000
2017-09-20 12:38:20,0.01,0.18,0.00,20.03,24.02,26.49,13.82,44.53,1005.89,2045.99,3473.48,3067.01,3514.00,600.03,595.83,19.48,0000 0000 0000 0000 000000
2017-09-20 12:43:22,0.00,0.18,0.00,20.03,24.02,26.49,13.84,44.44,1005.95,2045.99,3473.01,3067.00,3513.95,599.72,595.45,19.53,0000 0000 0000 0000 000000
2017-09-20 12:48:22,0.01,0.18,0.00,20.02,24.01,26.50,13.93,44.51,1006.04,2045.99,3472.82,3066.88,3513.30,600.01,595.76,19.58,0000 0000 0000 0000 000000
2017-09-20 12:53:24,0.03,0.18,0.00,20.01,24.00,26.49,13.94,44.62,1005.95,2045.99,3472.09,3066.20,3513.01,599.55,595.30,19.63,0000 0000 0000 0000 000000